Flag for Canada Weather past 2 weeks in Longueuil, Quebec, Canada

Now
25 °F

Chilly.


Feels Like: 18 °F
Forecast: 23 / 34 °F
Wind: 6 mph from Northwest

Location: Mc Tavish

Current Time: Mar 31, 2015 at 8:28:17 AM

Latest Report: Mar 31, 2015 at 7:00 AM


Visibility: N/A

Pressure: 29.78 "Hg

Humidity: 49%

Dew point: 9 °F

Location of LongueuilLocation

Historic Weather in Longueuil — Graph

°F

Longueuil temperature yesterday

Maximum temperature yesterday: 39 °F (at 3:00 PM)
Minimum temperature yesterday: 32 °F (at 9:00 AM)
Average temperature yesterday: 35 °F

Past Weeks' High & Low Weather Summary

 TemperatureHumidityPressure
High46 °F (Mar 25, 5:00 PM)98% (Mar 21, 3:00 PM)30.39 "Hg (Mar 21, 3:00 PM)
Low4 °F (Mar 23, 7:00 AM)24% (Mar 19, 3:00 PM)29.46 "Hg (Mar 17, 10:00 AM)
Average27 °F57%29.99 "Hg
* Reported Mar 16 7:00 AM — Mar 31 7:00 AM, Longueuil, Weather by CustomWeather, © 2015

Note: Actual official high and low records may vary slightly from our data, if they occured in-between our weather recording intervals... More about our weather records

Advertising

Longueuil weather history for previous 24 hours

 ConditionsComfort  
Time TempWeatherWind HumidityBarometerVisibility
7:00 AM
Tue, Mar 31
25 °FChilly.6 mph49%29.78 "HgN/A
6:00 AM27 °FChilly.5 mph56%29.75 "HgN/A
5:00 AM29 °FChilly.5 mph62%29.74 "HgN/A
4:00 AM29 °FChilly.5 mph60%29.72 "HgN/A
3:00 AM31 °FChilly.5 mph66%29.71 "HgN/A
2:00 AM32 °FChilly.3 mph64%29.69 "HgN/A
1:00 AM34 °FChilly.2 mph68%29.67 "HgN/A
12:00 AM35 °FChilly.2 mph69%29.65 "HgN/A
11:00 PM
Mon, Mar 30
35 °FChilly.2 mph80%29.64 "HgN/A
10:00 PM36 °FChilly.3 mph79%29.62 "HgN/A
9:00 PM37 °FChilly.5 mph79%29.60 "HgN/A
8:00 PM36 °FChilly.3 mph84%29.58 "HgN/A
7:00 PM37 °FChilly.5 mph82%29.57 "HgN/A
6:00 PM38 °FChilly.7 mph78%29.55 "HgN/A
5:00 PM38 °FChilly.8 mph78%29.53 "HgN/A
4:00 PM38 °FChilly.9 mph79%29.52 "HgN/A
3:00 PM39 °FChilly.6 mph74%29.50 "HgN/A
2:00 PM37 °FChilly.7 mph80%29.49 "HgN/A
1:00 PM37 °FChilly.5 mph80%29.50 "HgN/A
12:00 PM34 °FChilly.3 mph89%29.52 "HgN/A
11:00 AM33 °FChilly.5 mph85%29.53 "HgN/A
10:00 AM33 °FChilly.3 mph80%29.54 "HgN/A
9:00 AM32 °FChilly.3 mph77%29.57 "HgN/A
8:00 AM33 °FChilly.5 mph67%29.60 "HgN/A
Weather by CustomWeather, © 2015

See weather overviewHow to use our weather pages